Regional Weather Roundup
Issued by NWS

Home | Current Version | Previous Version | Text Only | Print | Product List | Glossary Off
Versions: 1 2 3 4 5 6 7 8 9 10 11 12 13 14 15 16 17 18 19 20 21 22 23 24 25 26 27 28 29 30 31 32 33 34 35 36 37 38 39 40 41 42 43 44 45 46 47 48 49 50

000
ASUS43 KMPX 171710
RWRMN
WEATHER ROUNDUP FOR MINNESOTA
NATIONAL WEATHER SERVICE TWIN CITIES/CHANHASSEN MN
1200 PM CDT THU AUG 17 2017


NOTE: "FAIR" INDICATES FEW OR NO CLOUDS BELOW 12,000 FEET WITH NO
SIGNIFICANT WEATHER AND/OR OBSTRUCTIONS TO VISIBILITY. N/A MEANS
CURRENT SKY AND/OR WEATHER CONDITIONS ARE NOT AVAILABLE.

MNZ060>063-068>070-171800-
   Twin Cities Metro

CITY           SKY/WX    TMP DP  RH WIND       PRES   REMARKS
TWIN CITIES    CLOUDY    66  60  81 NW18G28   29.66R
ST PAUL        LGT RAIN  65  64  97 NW16      29.65R
CRYSTAL        CLOUDY    65  58  78 NW15      29.66R
BLAINE         CLOUDY    66  64  94 NW20G28   29.62S
LAKEVILLE      CLOUDY    63  63 100 NW17G24   29.67R FOG
EDEN PRAIRIE   CLOUDY    67  62  84 NW13G20   29.67R
SOUTH ST PAUL  CLOUDY    64  64  99 NW13G21   29.64R
LAKE ELMO      CLOUDY    64  63  94 NW14G22   29.65R
$$
MNZ001>005-007-008-013>017-022>024-027-028-171800-
   Northwest Minnesota

CITY           SKY/WX    TMP DP  RH WIND       PRES   REMARKS
BEMIDJI        CLOUDY    62  60  93 N10       29.80S
HALLOCK        MOSUNNY   72  63  73 NW7       29.84S
ROSEAU           N/A     70  63  78 NE9       29.83S
WARROAD        MOSUNNY   68  61  77 NE6       29.84R
THIEF RVR FALL MOSUNNY   71  59  65 N10       29.84S
CROOKSTON      SUNNY     72  61  68 N13       29.83F
FOSSTON        CLOUDY    64  63  94 N12       29.83S
DETROIT LAKES  CLOUDY    64  61  88 N8G17     29.83S
MOORHEAD       MOSUNNY   70  63  78 N10       29.84S
PARK RAPIDS    CLOUDY    65  60  84 N14       29.79S
MAHNOMEN       PTSUNNY   67  61  81 N17       29.82S
$$
MNZ006-009>011-018-025>026-171800-
   North Central Minnesota

CITY           SKY/WX    TMP DP  RH WIND       PRES   REMARKS
BAUDETTE       CLOUDY    69  59  70 N12       29.82R
FLAG ISLAND    MOSUNNY   70  55  60 N5        29.81S
INTL FALLS     CLOUDY    60  58  92 N8        29.79S
WASKISH        CLOUDY    63  61  94 N7        29.81R
BIG FORK       LGT RAIN  63  61  94 N6        29.76S
LONGVILLE      CLOUDY    63  61  94 N8        29.76R
GRAND RAPIDS   LGT RAIN  62  59  90 N13       29.75S
CRANE LAKE     LGT RAIN  59  57  94 N5        29.76S
ORR            LGT RAIN  61  57  88 NW3       29.72S
COOK           LGT RAIN  61  61 100 N6        29.73S
WALKER         CLOUDY    60  59  96 N9G16     29.78S FOG
$$
MNZ012-019>021-037-171800-
   Northeast Minnesota

CITY           SKY/WX    TMP DP  RH WIND       PRES   REMARKS
DULUTH         LGT RAIN  60  60 100 N10       29.64S VSB 3/4
ELY            RAIN      59  59 100 N5        29.70R
HIBBING        LGT RAIN  60  59  96 N12       29.70S
EVELETH        RAIN      60  57  89 N7        29.71S
DULUTH HARBOR  LGT RAIN  63  61  94 NW7       29.63R
TWO HARBORS    CLOUDY    66  61  82 NE7       29.61F
SILVER BAY     CLOUDY    64  63  94 N3        29.62S
GRAND MARAIS     N/A     68  61  78 NE13G21   29.61F
G MARAIS ARPRT CLOUDY    61  55  82 N16G23    29.66F FOG
$$
MNZ029>031-032-039>041-046>048-054>057-064-171800-
   West Central Minnesota

CITY           SKY/WX    TMP DP  RH WIND       PRES   REMARKS
FERGUS FALLS   CLOUDY    68  64  88 N14G21    29.82R
WHEATON        PTSUNNY   66  61  82 NW14      29.85S
MORRIS         MOSUNNY   66  63  88 NW14G23   29.81S
ALEXANDRIA     CLOUDY    65  62  90 N12G23    29.81R
ELBOW LAKE     CLOUDY    67  62  85 NW15G22   29.82S
WADENA         CLOUDY    63  63 100 N15G21    29.79R
GLENWOOD       MOSUNNY   66  64  94 NW12      29.79S
APPLETON       CLOUDY    66  61  82 NW13G22   29.82S
BENSON         CLOUDY    66  63  88 N17G23    29.82R
ORTONVILLE     CLOUDY    66  61  82 MISG      29.84S
MADISON        CLOUDY    66  66 100 NW16      29.84R
WILLMAR        CLOUDY    66  64  94 NW14      29.80R
$$
MNZ033>034-036-042>043-049>051-058-059-171800-
   Central Minnesota

CITY           SKY/WX    TMP DP  RH WIND       PRES   REMARKS
ST CLOUD       CLOUDY    67  63  87 NW15G25   29.71R
SAUK CENTRE    CLOUDY    66  62  86 NW16      29.77R
PAYNESVILLE    CLOUDY    69  64  83 NW16G24   29.76R
AITKIN         CLOUDY    63  59  88 N16       29.71R
PINE RIVER     CLOUDY    61  57  88 N8        29.80R
BRAINERD       LGT RAIN  63  60  90 NW15      29.75R
STAPLES        CLOUDY    63  61  94 N13       29.78R
LONG PRAIRIE   CLOUDY    64  61  88 W15G22    29.78R
LITTLE FALLS   CLOUDY    64  63  94 NW12G17   29.74R
LITCHFIELD     PTSUNNY   72  66  83 NW13G22   29.75R
BUFFALO        CLOUDY    66  60  79 NW15G28   29.71R
MAPLE LAKE     CLOUDY    67  64  87 NW15      29.72R
HUTCHINSON     CLOUDY    71  65  81 NW16G25   29.75R
$$
MNZ037-044-045-052-053-171800-
   East Central Minnesota

CITY           SKY/WX    TMP DP  RH WIND       PRES   REMARKS
PRINCETON      CLOUDY    64  61  88 NW10G18   29.70R
MORA           CLOUDY    64  61  88 N13G21    29.68R
RUSH CITY      HVY RAIN  63  59  88 N12G21    29.65R
MOOSE LAKE     CLOUDY    61  59  94 N12       29.65R
HINCKLEY       CLOUDY    63  61  94 N14G22    29.65R
CLOQUET        CLOUDY    61  57  88 NW12      29.66R FOG
MCGREGOR       CLOUDY    63  59  88 NW9       29.71R
$$
MNZ071>073-080-081-089-090-097-098-171800-
   Southwest Minnesota

CITY           SKY/WX    TMP DP  RH WIND       PRES   REMARKS
MONTEVIDEO     CLOUDY    66  66 100 N17       29.82R
GRANITE FALLS  CLOUDY    66  63  89 W15       29.84R
CANBY          CLOUDY    70  63  77 NW14      29.86R
MARSHALL       CLOUDY    66  61  84 NW17      29.84R
REDWOOD FALLS  CLOUDY    68  61  78 NW15G25   29.79R
OLIVIA         CLOUDY    68  63  83 NW18      29.79R
PIPESTONE      MOSUNNY   72  61  68 N18G24    29.88S
WINDOM         SUNNY     64  61  88 W16G22    29.84R
WORTHINGTON    PTSUNNY   69  61  75 NW18G26   29.86S
JACKSON        CLOUDY    64  59  82 W16G24    29.85R
TRACY          CLOUDY    66  63  90 NW13G23   29.85R
SLAYTON        CLOUDY    65  56  72 NW17G25   29.87R
$$
MNZ065>067-074>077-082>085-091>093-171800-
   South Central Minnesota

CITY           SKY/WX    TMP DP  RH WIND       PRES   REMARKS
MANKATO        CLOUDY    68  64  87 W18G25    29.73R
NEW ULM        CLOUDY    66  63  88 NW21G26   29.77R
ST JAMES       CLOUDY    66  63  88 W18G26    29.81R
FAIRMONT       PTSUNNY   69  62  78 W23G31    29.80R
GLENCOE        CLOUDY    71  66  84 NW16G31   29.72R
FARIBAULT      CLOUDY    66  64  94 W14G26    29.70R FOG
OWATONNA       RAIN      66  64  94 W16       29.70R
WASECA         CLOUDY    66  63  88 W17G25    29.73R
ALBERT LEA     CLOUDY    66  66 100 W10G24    29.73R
$$
MNZ078>079-086>088-094>096-171800-
   Southeast Minnesota

CITY           SKY/WX    TMP DP  RH WIND       PRES   REMARKS
ROCHESTER      CLOUDY    66  64  93 W23G32    29.67R
RED WING       DRIZZLE   70  64  83 NW14G21   29.60R
STANTON        CLOUDY    66  63  90 W17G23    29.65R FOG
DODGE CENTER   CLOUDY    64  63  94 W20G29    29.68R
WINONA         CLOUDY    72  63  73 W14G21    29.61R
AUSTIN         CLOUDY    66  63  88 W17G28    29.71R
PRESTON        CLOUDY    67  62  84 W20G29    29.68R
$$
ABBREVIATIONS USED IN REMARKS
   TC - TEMPERATURES IN CELSIUS
  WCI - WIND CHILL INDEX
   HX - HEAT INDEX
  VSB - VISIBILITY
$$



USA.gov is the U.S. government's official web portal to all federal, state and local government web resources and services.